Regional Weather Roundup
Issued by NWS

Home | Current Version | Previous Version | Graphics & Text | Print | Product List | Glossary On
Versions: 1 2 3 4 5 6 7 8 9 10 11 12 13 14 15 16 17 18 19 20 21 22 23 24 25 26 27 28 29 30 31 32 33 34 35 36 37 38 39 40 41 42 43 44 45 46 47 48 49 50
000
ASUS45 KABQ 150401
RWRNM
WEATHER ROUNDUP FOR NEW MEXICO
NATIONAL WEATHER SERVICE ALBUQUERQUE NM
1000 PM MDT MON APR 14 2014

NOTE: "FAIR" MEANS FEW OR NO CLOUDS BELOW 12,000 FEET AGL WITH NO
       SIGNIFICANT WEATHER OR OBSTRUCTIONS TO VISION.

      THIS PRODUCT IS RELEASED AS TWO VERSIONS.  ONE VERSION NEAR
      THE TOP OF THE HOUR CONTAINING PRELIMINARY DATA FROM ALBUQUERQUE
      AND OTHER STATIONS.  A FINAL VERSION WITH ADDITIONAL DATA IS
      ISSUED ABOUT 10 MINUTES AFTER THE HOUR.

NMZ501-503-504-510>518-150500-
NORTHWEST PLATEAU/NORTHCENTRAL MOUNTAINS

CITY           SKY/WX    TMP DP  RH WIND       PRES   REMARKS
FARMINGTON     CLEAR     43   5  20 W6        30.21R
LOS ALAMOS     CLEAR     37  16  41 SE6       30.23R WCI  33
SANTA FE       CLEAR     37  23  56 E6        30.22R WCI  32
TAOS           CLEAR     34  18  51 NW5       30.25R WCI  30
ANGEL FIRE     FAIR      31  21  66 E3        30.23R

$$
NMZ402-403-502-505>509-150500-
WESTCENTRAL MOUNTAINS/SOUTHWEST MOUNTAINS

CITY           SKY/WX    TMP DP  RH WIND       PRES   REMARKS
GALLUP         CLEAR     32  -6  19 CALM      30.26R
SILVER CITY    CLEAR     48  10  21 E9        30.24R

$$
NMZ407-409-411-412-150500-
SOUTHERN DESERTS

CITY           SKY/WX    TMP DP  RH WIND       PRES   REMARKS
DEMING         CLEAR     54  18  24 SE15G22   30.19R
LAS CRUCES     CLEAR     48  17  28 SE14      30.25R
HOLLOMAN AFB   CLEAR     46  19  34 S13       30.23R
T OR C         CLEAR     50  16  25 SE7       30.21R

$$
NMZ519>523-150500-
CENTRAL VALLEYS/CENTRAL HIGHLANDS

CITY           SKY/WX    TMP DP  RH WIND       PRES   REMARKS
ALBUQUERQUE    CLEAR     50  14  23 W3        30.23R
DOUBLE EAGLE   CLEAR     43   2  18 NW10      30.23R
CLINES CORNERS CLEAR     32  20  61 SW8       30.22R WCI  25
BELEN          FAIR      44  16  32 S8        30.22R
SOCORRO        NOT AVBL

$$
NMZ524>526-539-540-150500-
SOUTHCENTRAL MOUNTAINS

CITY           SKY/WX    TMP DP  RH WIND       PRES   REMARKS
RUIDOSO        NOT AVBL

$$
NMZ527>531-150500-
NORTHEAST HIGHLANDS/NORTHEAST PLAINS

CITY           SKY/WX    TMP DP  RH WIND       PRES   REMARKS
LAS VEGAS      CLEAR     28  21  75 S17       30.23R WCI  16
RATON          CLEAR     30  22  72 W5        30.22R WCI  25
CLAYTON        CLEAR     29  16  58 CALM      30.25R

$$
NMZ532>537-150500-
EASTCENTRAL PLAINS

CITY           SKY/WX    TMP DP  RH WIND       PRES   REMARKS
TUCUMCARI      CLEAR     34  22  61 SE7       30.27S WCI  28
CANNON AFB     CLEAR     32  18  55 E5        30.30R WCI  28
CLOVIS AIRPORT CLEAR     30  14  51 CALM      30.33R

$$
NMZ028-029-538-150500-
SOUTHEAST PLAINS

CITY           SKY/WX    TMP DP  RH WIND       PRES   REMARKS
ROSWELL        CLEAR     38  15  39 S6        30.31R WCI  33
CARLSBAD       CLEAR     40  15  36 CALM      30.33R
HOBBS          CLEAR     36  14  41 NE6       30.35R WCI  31


$$



USA.gov is the U.S. government's official web portal to all federal, state and local government web resources and services.